Other Public Products
Issued by NWS Charleston, SC

Current Version | Previous Version | Graphics & Text | Print | Product List | Glossary On
Versions: 1 2 3 4 5 6 7 8 9 10 11 12 13 14 15 16 17 18 19 20 21 22 23 24 25 26 27 28 29 30 31 32 33 34 35 36 37 38 39 40 41 42 43 44 45 46 47 48 49 50
159
FPUS82 KCHS 231127
OPUCHS

TEST...KCHS/KSAV Gateway Observations...TEST
National Weather Service Charleston SC
600 AM EST THU NOV 23 2017

NOTE: "fair" indicates few or no clouds below 12,000 feet with no
significant weather and/or obstructions to visibility.

SCZ050-WAZ558-NCZ071-TXZ119-213-PAZ071-DCZ001-FLZ074-172-MI076-
NYZ176-178-MAZ016-IL014-TNZ027-NJZ106-GAZ044-MD014-231200-

...Gateway Observations for Charleston International...

CITY           SKY/WX    TMP DP  RH WIND       PRES   REMARKS
Chas Airport   CLOUDY    48  37  65 NE9       30.06R
Seattle        CLOUDY    56  55  97 S13       29.89R
Charlotte      CLOUDY    39  28  64 NE7       30.13S WCI  34
Dallas DFW     CLOUDY    37  29  72 S3        30.18F
Dallas Love    PTCLDY    37  32  82 CALM      30.20F
Philladelphia  PTCLDY    33  17  51 NW7       30.16R WCI  27
Wash National  PTCLDY    33  22  63 N8        30.19S WCI  26
Baltimore      PTCLDY    28  23  81 CALM      30.17R
Miami          PTCLDY    74  70  87 SE5       29.89R
Detroit        CLOUDY    29  23  78 S6        30.12F WCI  23
Newark         CLEAR     32  18  56 NW9       30.10R WCI  24
Laguardia      CLEAR     34  21  59 NW14      30.09R WCI  25
J F K          CLEAR     32  20  61 NW10      30.10R WCI  24
Boston Logan   PTCLDY    33  21  61 NW7       30.02R WCI  27
Ft. Lauderdale MOCLDY    75  71  87 SE10      29.87S
Chicago O`Hare CLOUDY    34  19  54 S12       30.04F WCI  25
Chicago Midway CLOUDY    33  21  61 SW12      30.06F WCI  24
Houston Bush   CLEAR     42  36  79 CALM      30.19S
Houston Hobby  CLEAR     44  38  79 N6        30.18S
Nashville      CLEAR     27  23  85 CALM      30.18R
Atlanta        PTCLDY    44  34  67 E9        30.05S

$$

GAZ044-118-TXZ119-213-NCZ071-DCZ001-MDZ014-506-PAZ021-071-NJZ106-
NYZ176-178-MAZ106-OHZ011-021-055-MIZ076-KYZ091-ILZ014-INZ047-
MNZ060-ONZ431-231200-

...Gateway Observations for Savannah International...

CITY           SKY/WX    TMP DP  RH WIND       PRES   REMARKS
Savannah Arpt  LGT RAIN  54  43  66 NE6       30.04R
Atlanta        PTCLDY    44  34  67 E9        30.05S
Charlotte      CLOUDY    39  28  64 NE7       30.13S WCI  34
Dallas DFW     CLOUDY    37  29  72 S3        30.18F
Houston Bush   CLEAR     42  36  79 CALM      30.19S
Wash National  PTCLDY    33  22  63 N8        30.19S WCI  26
Wash Dulles    CLOUDY    27  21  78 CALM      30.18R
Baltimore      PTCLDY    28  23  81 CALM      30.17R
Philadelphia   PTCLDY    33  17  51 NW7       30.16R WCI  27
Newark         CLEAR     32  18  56 NW9       30.10R WCI  24
Laguardia      CLEAR     34  21  59 NW14      30.09R WCI  25
J F K          CLEAR     32  20  61 NW10      30.10R WCI  24
Boston         PTCLDY    33  21  61 NW7       30.02R WCI  27
Pittsburg      CLOUDY    23  20  88 CALM      30.15F
Akron          PTCLDY    25  18  74 S3        30.16S
Cleveland      CLOUDY    29  20  69 S7        30.18F WCI  22
Cincinnati     CLOUDY    24  24 100 CALM      30.18S
Columbus       PTCLDY    21  20  98 CALM      30.18F
Detroit        CLOUDY    29  23  78 S6        30.12F WCI  23
Chicago O`Hare CLOUDY    34  19  54 S12       30.04F WCI  25
Minneapolis    CLOUDY    23  21  92 CALM      29.94R
Indianapolis   CLOUDY    30  24  78 S7        30.15F WCI  23
Toronto Canada MOCLDY    30  19  64 SW6       30.09F WCI  24

$$




USA.gov is the U.S. government's official web portal to all federal, state and local government web resources and services.